CW0262 Port St. Lucie FL US current weather conditions

sailwx.info

Wind from 231 at 4 knots gusting 11

Air temperature 25.0° C
Dewpoint 21.3° C

Last reported at 2019-Nov-15 20:02 UTC.
Time now 2019-Nov-15 20:36 UTC

Location: N 27°17' W 080°20'.
View on Google Maps.

See reports from other nearby stations

  
Tides and Currents Weather Stations Pressure Air Temp Water Temp Dewpoint Dewpoint Depression Visibility Wind Speed Wind Dir Waves Ship Positions
date/time (UTC)wind fromknots sea level pressurealtimeterstation pressurevisibilityair tempwater tempwave heightnotes
2019-Nov-15 20:02 231 4 gusting 11 25.0
2019-Nov-15 19:52 235 5 gusting 10 25.0
2019-Nov-15 19:42 240 4 gusting 10 25.0
2019-Nov-15 19:32 238 5 gusting 12 25.0
2019-Nov-15 19:22 249 5 gusting 14 25.0
2019-Nov-15 19:12 241 6 gusting 14 25.6
2019-Nov-15 18:32 242 7 gusting 18 26.1
2019-Nov-15 18:22 248 5 gusting 13 26.7
2019-Nov-15 18:02 240 7 gusting 18 27.2
2019-Nov-15 17:42 249 7 gusting 15 27.8
2019-Nov-15 17:32 252 8 gusting 15 28.3
2019-Nov-15 17:22 242 6 gusting 15 27.8
2019-Nov-15 17:12 219 6 gusting 14 27.8
2019-Nov-15 17:02 249 5 gusting 14 28.9
2019-Nov-15 16:52 241 6 gusting 17 28.3
2019-Nov-15 16:42 262 8 gusting 17 28.3
2019-Nov-15 16:32 236 4 gusting 12 28.3
2019-Nov-15 16:22 221 6 gusting 13 27.8
2019-Nov-15 16:02 240 6 gusting 14 27.8
2019-Nov-15 15:52 224 7 gusting 14 27.2
2019-Nov-15 15:42 210 6 gusting 12 27.2
2019-Nov-15 15:22 189 6 gusting 12 26.7
2019-Nov-15 15:12 224 6 gusting 10 26.1
2019-Nov-15 15:02 208 6 gusting 13 26.1
2019-Nov-15 14:52 230 4 gusting 12 26.1
2019-Nov-15 14:42 200 4 gusting 10 25.6
2019-Nov-15 14:32 225 4 gusting 12 25.6
2019-Nov-15 14:02 223 2 gusting 10 24.4
2019-Nov-15 13:42 203 4 gusting 8 23.9
2019-Nov-15 13:32 233 3 gusting 8 23.3
2019-Nov-15 13:12 225 2 gusting 6 23.3
2019-Nov-15 12:52 224 2 gusting 6 22.8
2019-Nov-15 12:42 225 4 gusting 6 22.8
2019-Nov-15 12:32 244 2 gusting 6 22.8
2019-Nov-15 12:22 236 2 gusting 6 22.2
2019-Nov-15 12:02 248 0 gusting 6 22.2
2019-Nov-15 11:52 237 0 gusting 5 22.2
2019-Nov-15 11:02 214 22.2
2019-Nov-15 10:52 214 22.2
2019-Nov-15 10:32 214 22.2
2019-Nov-15 10:22 214 22.2
2019-Nov-15 10:12 214 22.2
2019-Nov-15 09:52 133 22.2
2019-Nov-15 09:42 133 22.2
2019-Nov-15 09:32 133 22.2
2019-Nov-15 09:22 133 22.8
2019-Nov-15 08:52 149 22.8
2019-Nov-15 08:42 165 22.8
2019-Nov-15 08:32 162 22.8
2019-Nov-15 08:22 164 22.8
2019-Nov-15 08:02 195 22.8
2019-Nov-15 07:52 195 22.8
2019-Nov-15 07:42 196 22.8
2019-Nov-15 07:32 159 1 gusting 6 22.8
2019-Nov-15 07:12 187 0 gusting 12 23.3
2019-Nov-15 06:52 123 4 gusting 10 22.8
2019-Nov-15 06:42 136 2 gusting 6 22.8
2019-Nov-15 06:32 142 1 gusting 6 22.8
2019-Nov-15 06:22 154 2 gusting 6 23.3
2019-Nov-15 06:02 108 4 gusting 11 23.3
2019-Nov-15 05:12 157 23.3
2019-Nov-15 04:52 156 23.3
2019-Nov-15 04:42 156 23.3
2019-Nov-15 04:22 152 23.3
2019-Nov-15 04:02 168 23.3
2019-Nov-15 03:52 109 23.3
2019-Nov-15 03:42 139 2 gusting 6 23.3
2019-Nov-15 03:32 116 2 gusting 6 23.3
2019-Nov-15 03:22 135 1 gusting 6 23.3
2019-Nov-15 03:12 140 2 gusting 6 23.3
2019-Nov-15 03:02 108 3 gusting 10 23.3
2019-Nov-15 02:42 136 6 gusting 10 23.9
2019-Nov-15 02:22 093 5 gusting 17 24.4
2019-Nov-15 02:02 119 2 gusting 10 24.4
2019-Nov-15 01:32 106 4 gusting 10 24.4
2019-Nov-15 00:52 129 5 gusting 13 24.4
2019-Nov-15 00:12 105 5 gusting 13 24.4
2019-Nov-15 00:02 091 5 gusting 13 24.4
2019-Nov-14 23:52 115 6 gusting 17 25.0
2019-Nov-14 23:32 110 5 gusting 12 25.0
2019-Nov-14 23:22 106 6 gusting 10 25.0
2019-Nov-14 23:12 100 4 gusting 13 25.0
2019-Nov-14 22:52 106 5 gusting 14 25.0
2019-Nov-14 22:32 100 6 gusting 13 25.0
2019-Nov-14 22:22 098 6 gusting 13 25.0
2019-Nov-14 22:12 109 6 gusting 13 25.0
2019-Nov-14 22:02 126 5 gusting 10 25.0
2019-Nov-14 21:42 093 4 gusting 11 25.0
2019-Nov-14 21:22 080 5 gusting 11 25.6
2019-Nov-14 21:12 104 4 gusting 12 25.6
2019-Nov-14 21:02 097 4 gusting 13 25.6
2019-Nov-14 20:42 093 5 gusting 14 25.6
2019-Nov-14 20:32 097 4 gusting 10 25.6
2019-Nov-14 20:12 109 5 gusting 10 26.1
2019-Nov-14 19:52 112 6 gusting 12 26.1
2019-Nov-14 19:22 131 6 gusting 15 26.1
2019-Nov-14 19:02 108 5 gusting 13 26.7
2019-Nov-14 18:52 076 5 gusting 13 26.7
2019-Nov-14 18:22 120 6 gusting 14 26.7
2019-Nov-14 18:12 104 5 gusting 17 26.7
2019-Nov-14 18:02 094 8 gusting 18 26.1
2019-Nov-14 17:52 108 6 gusting 15 26.1
2019-Nov-14 17:42 118 7 gusting 15 26.1
2019-Nov-14 17:32 110 5 gusting 17 26.1
2019-Nov-14 17:22 122 6 gusting 18 26.1
2019-Nov-14 17:12 102 6 gusting 15 26.1
2019-Nov-14 16:52 100 6 gusting 14 25.6
2019-Nov-14 16:42 091 5 gusting 13 25.6
2019-Nov-14 16:02 123 6 gusting 17 25.6
2019-Nov-14 15:52 090 6 gusting 12 25.0
2019-Nov-14 15:42 069 5 gusting 11 24.4
2019-Nov-14 15:32 078 4 gusting 14 24.4
2019-Nov-14 15:22 089 5 gusting 14 24.4
2019-Nov-14 15:12 082 4 gusting 10 24.4
2019-Nov-14 15:02 059 2 gusting 10 24.4
2019-Nov-14 14:42 078 2 gusting 10 24.4
2019-Nov-14 14:32 079 4 gusting 13 24.4
2019-Nov-14 14:22 059 5 gusting 13 24.4
2019-Nov-14 14:12 062 3 gusting 10 24.4
2019-Nov-14 13:52 076 8 gusting 17 24.4
2019-Nov-14 13:42 072 5 gusting 10 24.4
2019-Nov-14 13:32 040 4 gusting 10 24.4
2019-Nov-14 13:22 076 5 gusting 10 24.4
2019-Nov-14 13:12 067 4 gusting 10 23.3
2019-Nov-14 13:02 062 2 gusting 6 23.3
2019-Nov-14 12:52 065 2 gusting 6 23.3
2019-Nov-14 12:32 064 1 gusting 10 22.8
2019-Nov-14 12:22 066 4 gusting 10 23.3
2019-Nov-14 12:12 068 5 gusting 10 22.8
2019-Nov-14 11:42 082 4 gusting 10 22.8
2019-Nov-14 11:32 084 5 gusting 12 22.8
2019-Nov-14 11:22 090 3 gusting 12 22.8
2019-Nov-14 11:02 096 4 gusting 12 22.8
2019-Nov-14 10:52 123 3 gusting 10 23.3
2019-Nov-14 10:42 082 4 gusting 8 23.3
2019-Nov-14 10:02 092 5 gusting 10 23.3
2019-Nov-14 09:32 075 5 gusting 12 23.3
2019-Nov-14 09:22 075 3 gusting 12 23.3
2019-Nov-14 09:12 070 2 gusting 12 23.3
2019-Nov-14 09:02 070 2 gusting 10 23.3
2019-Nov-14 08:52 068 5 gusting 10 23.3
2019-Nov-14 08:42 076 3 gusting 10 23.3
2019-Nov-14 08:22 068 3 gusting 10 23.3
2019-Nov-14 07:52 078 4 gusting 13 23.3
2019-Nov-14 07:32 062 5 gusting 13 23.3
2019-Nov-14 07:22 061 4 gusting 12 23.3
2019-Nov-14 07:12 075 5 gusting 11 22.8
2019-Nov-14 07:02 072 5 gusting 13 22.8
2019-Nov-14 06:52 065 4 gusting 14 22.8
2019-Nov-14 06:42 074 3 gusting 11 22.8
2019-Nov-14 06:12 067 4 gusting 14 23.3
2019-Nov-14 05:52 059 4 gusting 12 23.3
2019-Nov-14 05:42 063 4 gusting 13 23.3
2019-Nov-14 05:32 090 6 gusting 14 23.3
2019-Nov-14 05:02 087 4 gusting 14 22.8
2019-Nov-14 04:42 073 6 gusting 12 22.8
2019-Nov-14 04:32 078 5 gusting 12 22.8
2019-Nov-14 04:22 042 4 gusting 12 22.8
2019-Nov-14 04:12 060 5 gusting 13 22.8
2019-Nov-14 04:02 072 5 gusting 15 22.8
2019-Nov-14 03:52 079 4 gusting 11 22.8
2019-Nov-14 03:42 060 2 gusting 12 22.8
2019-Nov-14 03:32 068 2 gusting 12 22.8
2019-Nov-14 03:22 036 6 gusting 14 22.8
2019-Nov-14 03:12 068 4 gusting 14 22.8
2019-Nov-14 02:42 078 5 gusting 14 22.8
2019-Nov-14 02:32 088 5 gusting 15 22.8
2019-Nov-14 02:12 080 4 gusting 13 22.8
2019-Nov-14 02:02 073 4 gusting 12 22.8
2019-Nov-14 01:42 078 5 gusting 15 22.8
2019-Nov-14 01:22 073 3 gusting 10 22.8
2019-Nov-14 01:12 080 4 gusting 19 22.8
2019-Nov-14 01:02 017 6 gusting 13 22.2
2019-Nov-14 00:52 063 4 gusting 12 22.2
2019-Nov-14 00:42 063 4 gusting 13 22.2
2019-Nov-14 00:32 058 4 gusting 13 22.2
2019-Nov-14 00:22 059 2 gusting 12 21.7
2019-Nov-13 23:52 072 2 gusting 8 21.7
2019-Nov-13 23:42 031 1 gusting 10 21.7
2019-Nov-13 23:32 040 3 gusting 10 21.7
2019-Nov-13 23:22 068 5 gusting 10 21.7
2019-Nov-13 23:12 063 2 gusting 11 21.7
2019-Nov-13 22:52 051 2 gusting 10 21.1
2019-Nov-13 22:42 064 2 gusting 10 21.1
2019-Nov-13 22:32 071 3 gusting 8 21.1
2019-Nov-13 22:12 068 21.1
2019-Nov-13 22:02 022 1 gusting 7 21.1
2019-Nov-13 21:42 058 3 gusting 11 20.6
2019-Nov-13 21:32 066 4 gusting 12 20.6
2019-Nov-13 21:22 065 5 gusting 15 21.1
2019-Nov-13 21:12 083 5 gusting 18 21.1
2019-Nov-13 20:52 042 2 gusting 6 21.7
2019-Nov-13 20:42 044 2 gusting 7 21.7
2019-Nov-13 20:12 065 1 gusting 12 22.2